"Pseudo-MPEC" for ST20E11

Created 2020 May 27 21:07:17 UT using Find_Orb

Click here for an explanation of pseudo-MPECs

 
 Astrometry: 
     ST20E11  C2020 05 21T_+Et+JY$6R9'Astrometry(k^sn#Yredacted;Il'RKk=o@q2^0U68
     ST20E11  C2020 05 21q*_TrDJsLRe0%33^6Y?B+clickd9+0fCu]'Z96,?hereZW9,/Xp5U68
     ST20E11  C2020 05 21E]M5=GW1Kp5Cn0ZuDteQmFb`,K#`=:hRW5dY56K$3?5Gn3uZiZOfU68
     ST20E11  C2020 05 21RHCl?^ZLoforIjO$%?O)RHrS,OP$0+GQ]ItOi2explanationdo(U68

Station data:
(U68) JPL SynTrack Robotic Telescope, Auberry  (N37.070390 W119.412990)
   US/California.

Orbital elements:  ST20E11
   Perihelion 2020 Jan 7.475750 +/- 133 TT = 11:25:04 (JD 2458855.975750)
Epoch 2020 May 21.0 TT = JDT 2458990.5   Earth MOID: 0.0358   AutoNEOCP
M 117.88620932 +/- 100              (J2000 ecliptic)
n   0.87631939 +/- 0.126            Peri.  294.40062 +/- 14
a   1.08150309 +/- 0.104            Node   180.09392 +/- 52
e   0.0751287 +/- 0.148             Incl.    3.06041 +/- 3.0
P   1.12/410.80d           H 23.7   G  0.15   U 11.4  SR
q 1.00025107 +/- 0.126    Q 1.16275511 +/- 0.362
From 4 observations 2020 May 21 (4.3 hr); mean residual 0".84
Residuals in arcseconds: 
200521 U68  .01-  .95-    200521 U68  .25+  1.4-    
200521 U68  .00   1.0+    200521 U68  .23-  1.3+    

Ephemerides (geocentric):
Date (UTC) HH   RA              Dec         delta   r     elong  mag " sig PA
---- -- -- --  -------------   -----------  ------ ------ -----  --- ---- ---
2020 05 27 21  15 41 23.620   +05 36 52.56  .13170 1.1308 151.4 20.8  43d 175
2020 05 27 22  15 41 19.634   +05 36 50.85  .13176 1.1308 151.4 20.8  43d 175
2020 05 27 23  15 41 15.655   +05 36 49.02  .13182 1.1309 151.3 20.8  43d 175
2020 05 28 00  15 41 11.682   +05 36 47.10  .13189 1.1309 151.3 20.8  43d 175
2020 05 28 01  15 41 07.715   +05 36 45.08  .13195 1.1309 151.3 20.8  43d 175
2020 05 28 02  15 41 03.755   +05 36 42.96  .13202 1.1310 151.3 20.8  43d 175
2020 05 28 03  15 40 59.801   +05 36 40.73  .13208 1.1310 151.2 20.8  43d 175
2020 05 28 04  15 40 55.854   +05 36 38.41  .13214 1.1311 151.2 20.8  43d 175
2020 05 28 05  15 40 51.913   +05 36 35.98  .13221 1.1311 151.2 20.8  43d 175
2020 05 28 06  15 40 47.979   +05 36 33.45  .13227 1.1311 151.2 20.8  43d 175
2020 05 28 07  15 40 44.051   +05 36 30.83  .13233 1.1312 151.1 20.8  43d 175
2020 05 28 08  15 40 40.130   +05 36 28.10  .13240 1.1312 151.1 20.8  43d 175
2020 05 28 09  15 40 36.215   +05 36 25.27  .13246 1.1312 151.1 20.8  43d 175
2020 05 28 10  15 40 32.307   +05 36 22.35  .13253 1.1313 151.1 20.8  43d 175
2020 05 28 11  15 40 28.405   +05 36 19.32  .13259 1.1313 151.0 20.8  43d 175
2020 05 28 12  15 40 24.510   +05 36 16.20  .13266 1.1314 151.0 20.8  43d 175
2020 05 28 13  15 40 20.622   +05 36 12.97  .13272 1.1314 151.0 20.8  43d 175
2020 05 28 14  15 40 16.739   +05 36 09.65  .13278 1.1314 150.9 20.8  43d 175
2020 05 28 15  15 40 12.864   +05 36 06.22  .13285 1.1315 150.9 20.8  43d 175
2020 05 28 16  15 40 08.995   +05 36 02.70  .13291 1.1315 150.9 20.8  43d 175
2020 05 28 17  15 40 05.133   +05 35 59.08  .13298 1.1316 150.9 20.8  43d 175
2020 05 28 18  15 40 01.277   +05 35 55.36  .13304 1.1316 150.8 20.8  43d 175
2020 05 28 19  15 39 57.428   +05 35 51.54  .13311 1.1316 150.8 20.8  43d 175
2020 05 28 20  15 39 53.585   +05 35 47.62  .13317 1.1317 150.8 20.8  44d 175
2020 05 28 21  15 39 49.749   +05 35 43.60  .13324 1.1317 150.8 20.8  44d 175
2020 05 28 22  15 39 45.920   +05 35 39.49  .13330 1.1318 150.7 20.8  44d 175
2020 05 28 23  15 39 42.098   +05 35 35.27  .13337 1.1318 150.7 20.8  44d 176
2020 05 29 00  15 39 38.282   +05 35 30.96  .13343 1.1318 150.7 20.8  44d 176
2020 05 29 01  15 39 34.472   +05 35 26.55  .13350 1.1319 150.7 20.8  44d 176
2020 05 29 02  15 39 30.670   +05 35 22.05  .13357 1.1319 150.6 20.8  44d 176
2020 05 29 03  15 39 26.874   +05 35 17.44  .13363 1.1319 150.6 20.8  44d 176
2020 05 29 04  15 39 23.085   +05 35 12.74  .13370 1.1320 150.6 20.8  44d 176
2020 05 29 05  15 39 19.302   +05 35 07.94  .13376 1.1320 150.6 20.8  44d 176
2020 05 29 06  15 39 15.527   +05 35 03.05  .13383 1.1321 150.5 20.8  44d 176
2020 05 29 07  15 39 11.758   +05 34 58.05  .13390 1.1321 150.5 20.8  45d 176
2020 05 29 08  15 39 07.995   +05 34 52.96  .13396 1.1321 150.5 20.8  45d 176
2020 05 29 09  15 39 04.240   +05 34 47.78  .13403 1.1322 150.5 20.8  45d 176
2020 05 29 10  15 39 00.491   +05 34 42.49  .13409 1.1322 150.4 20.8  45d 176
2020 05 29 11  15 38 56.749   +05 34 37.11  .13416 1.1323 150.4 20.8  46d 176
2020 05 29 12  15 38 53.014   +05 34 31.64  .13423 1.1323 150.4 20.8  46d 176
2020 05 29 13  15 38 49.285   +05 34 26.06  .13429 1.1323 150.3 20.8  46d 176
2020 05 29 14  15 38 45.564   +05 34 20.39  .13436 1.1324 150.3 20.8  47d 176
2020 05 29 15  15 38 41.849   +05 34 14.63  .13443 1.1324 150.3 20.8  47d 176
2020 05 29 16  15 38 38.141   +05 34 08.77  .13449 1.1325 150.3 20.8  47d 176
2020 05 29 17  15 38 34.440   +05 34 02.81  .13456 1.1325 150.2 20.8  48d 176
2020 05 29 18  15 38 30.745   +05 33 56.76  .13463 1.1325 150.2 20.9  48d 176
2020 05 29 19  15 38 27.058   +05 33 50.61  .13469 1.1326 150.2 20.9  48d 176
2020 05 29 20  15 38 23.377   +05 33 44.37  .13476 1.1326 150.2 20.9  48d 176